Regional Weather Roundup
Issued by NWS

Home | Current Version | Previous Version | Text Only | Print | Product List | Glossary On
Versions: 1 2 3 4 5 6 7 8 9 10 11 12 13 14 15 16 17 18 19 20 21 22 23 24 25 26 27 28 29 30 31 32 33 34 35 36 37 38 39 40 41 42 43 44 45 46 47 48 49 50
000
ASUS43 KDTX 061410
RWRMI
MICHIGAN HOURLY REGIONAL WEATHER ROUNDUP
NATIONAL WEATHER SERVICE DETROIT/PONTIAC MI
1000 AM EDT FRI MAY 06 2016

NOTE: "FAIR" INDICATES FEW OR NO CLOUDS BELOW 12,000 FEET WITH NO
SIGNIFICANT WEATHER AND/OR OBSTRUCTION TO VISIBILITY.

MIZ047>049-052>055-059>063-066>070-074>076-081>083-061500-
SOUTHEAST LOWER MICHIGAN

CITY           SKY/WX    TMP DP  RH WIND       PRES   REMARKS
ADRIAN         SUNNY     58  42  55 N5        29.99R
ALMA           SUNNY     57  44  61 CALM      29.98R
BAD AXE        SUNNY     56  42  58 N3        29.97S
CARO           SUNNY     56  45  65 CALM      29.97S
DETROIT CITY   SUNNY     61  42  49 N8        29.96S
DETROIT        MOSUNNY   60  43  53 N5        29.98R
FLINT          SUNNY     60  40  47 W3        29.98S
GROSSE ILE     SUNNY     61  43  51 N7        29.96R
HILLSDALE      SUNNY     55  41  60 N5        29.99R
HOWELL         SUNNY     57  40  52 CALM      29.98S

CITY           SKY/WX    TMP DP  RH WIND       PRES   REMARKS
JACKSON        SUNNY     57  43  59 NW3       29.99R
LAMBERTVILLE   SUNNY     61  42  50 CALM      29.98R
LANSING        SUNNY     58  44  60 VRB3      29.99R
LAPEER         FAIR      56  41  57 NW5       29.98R
MASON          SUNNY     55  46  72 S3        29.98F
MONROE         SUNNY     59  45  59 N5        29.96S
MT. CLEMENS    SUNNY     60  44  55 N10       29.95R
PONTIAC        MOSUNNY   59  41  51 NW6       29.96S
PORT HOPE        N/A     52  41  66 NW5       29.95S
PORT HURON     SUNNY     59  43  55 N7        29.96S
TRI CITIES     SUNNY     58  42  55 CALM      29.98R
MIDLAND        FAIR      57  43  59 CALM      29.96F
TROY           SUNNY     60  42  52 NW7       29.98S
SAGINAW HB     SUNNY     55  43  62 CALM      29.97S
$$
MIZ043>046-050>051-056>058-064>065-071>073-077>080-061500-
SOUTHWEST LOWER MICHIGAN

CITY           SKY/WX    TMP DP  RH WIND       PRES   REMARKS
BATTLE CREEK   SUNNY     55  38  52 NW6       30.00R
BENTON HARBOR  MOSUNNY   54  45  71 S3        30.00S
BIG RAPIDS     SUNNY     55  43  64 CALM      29.96S
COLDWATER      SUNNY     54  42  62 CALM      29.99S
FREMONT        FAIR      55  42  61 SW6       29.97F
HOLLAND        SUNNY    N/A N/A N/A SW6       29.99S
GRAND RAPIDS   MOSUNNY   57  40  52 W7        29.99S
IONIA          FAIR      56  38  52 W5        29.98S
KALAMAZOO      SUNNY     58  40  51 CALM      30.00S
LUDINGTON      SUNNY     58  41  53 SW10      29.95S
MARSHALL       SUNNY     55  42  61 CALM      29.98S
MOUNT PLEASANT SUNNY     58  44  59 W5        29.96S
MUSKEGON       MOSUNNY   56  39  53 SW7       29.98S
SOUTH HAVEN    MOSUNNY   54  43  66 CALM      29.99S
$$
MIZ016>042-061500-
NORTHERN LOWER MICHIGAN

CITY           SKY/WX    TMP DP  RH WIND       PRES   REMARKS
ALPENA         SUNNY     58  39  49 SW3       29.95
BEAVER ISLAND  SUNNY     58  38  47 S8        29.90S
BELLAIRE       SUNNY     56  38  49 S5        29.93F
CADILLAC       SUNNY     56  40  54 SW5       29.95S
CHARLEVOIX     SUNNY     59  39  48 SW6       29.94S
FRANKFORT      SUNNY     59  43  55 S5        29.92F
GAYLORD        SUNNY     58  35  42 SW7       29.93
GRAYLING       SUNNY     59  37  44 SW6       29.95S
HARBOR SPRINGS SUNNY     56  37  50 SW3       29.92F
HOUGHTON LAKE  SUNNY     55  38  52 W5        29.96
MANISTEE       SUNNY     55  39  54 SE5       29.94F
OSCODA         SUNNY     59  40  49 E3        29.95S
PELLSTON       SUNNY     58  38  47 CALM      29.92
ROGERS CITY    SUNNY     58  36  43 S3        29.94F
TRAVERSE CITY  MOSUNNY   61  40  45 S6        29.92
$$
MIZ007>008-015-061500-
EASTERN UPPER MICHIGAN

CITY           SKY/WX    TMP DP  RH WIND       PRES   REMARKS
KINROSS          N/A     57  37  47 SW6       29.91S
MACKINAC ISLAN SUNNY     54  35  48 SW3       29.92S
NEWBERRY       SUNNY     55  40  55 S10       29.89S
S. S. MARIE    SUNNY     54  39  57 SE3       29.90
MUNISING         N/A     62  41  46 S13G20    29.81F
$$
MIZ004>006-011>014-085-061500-
CENTRAL UPPER MICHIGAN

CITY           SKY/WX    TMP DP  RH WIND       PRES   REMARKS
MANISTIQUE     MOSUNNY   47  41  80 S10       29.88F
ESCANABA       SUNNY     54  41  62 SW12      29.86S
MENOMINEE      SUNNY     64  43  45 SE9       29.86F
SAWYER-GWINN   SUNNY     57  41  54 SW12      29.85S
$$
MIZ001>003-009>011-084-061500-
WESTERN UPPER MICHIGAN

CITY           SKY/WX    TMP DP  RH WIND       PRES   REMARKS
IRON MOUNTAIN  SUNNY     64  42  44 SE5       29.82
HOUGHTON       SUNNY     63  40  42 S6        29.76
COPPER HARBOR    N/A     61  40  45 VRB6      29.76S
IRONWOOD         N/A     73  43  33 W12       29.78S
$$

ABBREVIATIONS USED IN REMARKS
   TC - TEMPERATURE IN CELSIUS
  WCI - WIND CHILL INDEX
   HX - HEAT INDEX
  VSB - VISIBILITY





USA.gov is the U.S. government's official web portal to all federal, state and local government web resources and services.